This is the latest recevied weather packets stored in our database for station/object SM0UQT-10. If no packets are shown the sender has not sent any weather packets the latest 10 day(s).
| Time | Temp. | Humidity | Pressure | Rain* | Wind** | Luminosity | Snow |
|---|---|---|---|---|---|---|---|
| 1777574425 | 20.56° C | 34% | 1029.3 hPa | - | - | - | - |
| 1777574392 | 20.56° C | 34% | 1029.3 hPa | - | - | - | - |
| 1777573783 | 22.22° C | 33% | 1029.3 hPa | - | - | - | - |
| 1777573492 | 22.22° C | 33% | 1029.3 hPa | - | - | - | - |
| 1777572756 | 22.22° C | 32% | 1029.2 hPa | - | - | - | - |
| 1777572592 | 22.22° C | 32% | 1029.2 hPa | - | - | - | - |
| 1777571739 | 22.78° C | 32% | 1029.1 hPa | - | - | - | - |
| 1777571692 | 22.78° C | 32% | 1029.1 hPa | - | - | - | - |
| 1777570937 | 21.67° C | 34% | 1029 hPa | - | - | - | - |
| 1777570792 | 21.67° C | 34% | 1029 hPa | - | - | - | - |
| 1777570180 | 21.11° C | 34% | 1028.9 hPa | - | - | - | - |
| 1777569891 | 21.11° C | 34% | 1028.9 hPa | - | - | - | - |
| 1777569208 | 21.67° C | 33% | 1029 hPa | - | - | - | - |
| 1777568991 | 21.67° C | 33% | 1029 hPa | - | - | - | - |
| 1777568122 | 21.67° C | 34% | 1028.9 hPa | - | - | - | - |
| 1777568091 | 21.67° C | 34% | 1028.9 hPa | - | - | - | - |
| 1777567359 | 22.78° C | 33% | 1028.7 hPa | - | - | - | - |
| 1777567191 | 22.78° C | 33% | 1028.7 hPa | - | - | - | - |
| 1777566325 | 23.33° C | 32% | 1028.9 hPa | - | - | - | - |
| 1777566291 | 23.33° C | 32% | 1028.9 hPa | - | - | - | - |
| 1777565530 | 22.78° C | 33% | 1028.8 hPa | - | - | - | - |
| 1777565390 | 22.78° C | 33% | 1028.8 hPa | - | - | - | - |
| 1777564596 | 23.33° C | 33% | 1028.8 hPa | - | - | - | - |
| 1777564490 | 23.33° C | 33% | 1028.8 hPa | - | - | - | - |
| 1777563728 | 23.89° C | 31% | 1028.8 hPa | - | - | - | - |
* Rain since midnight (hover to see other rain measurements)
** Current wind speed in m/s (hover to see current wind gust speed)